QPF
0.00 0.00 0.00 0.00 0.00 0.00 0.00 0.00 0.00 0.00 0.00 0.00 0.00 0.00 0.00 0.00 0.00 0.00 0.00 0.01 0.01 0.01 0.02 0.03 0.04 0.05 0.04 0.04 0.04 0.06 0.09 0.10 0.12 0.14 0.14 0.14 0.12 0.09 0.05 0.03 0.04 0.04 0.04 0.05
0.00 0.00 0.00 0.00 0.00 0.00 0.00 0.00 0.00 0.00 0.00 0.00 0.00 0.02 0.01 0.00 0.00 0.00 0.00 0.00 0.00 0.00 0.02 0.03 0.02 0.02 0.03 0.04 0.05 0.07 0.10 0.11 0.09 0.12 0.14 0.17 0.14 0.08 0.06 0.05 0.06 0.05 0.04 0.04
0.00 0.00 0.00 0.00 0.00 0.00 0.00 0.00 0.00 0.00 0.00 0.00 0.00 0.01 0.02 0.01 0.00 0.00 0.00 0.00 0.00 0.00 0.01 0.02 0.02 0.02 0.01 0.03 0.05 0.07 0.10 0.13 0.12 0.15 0.16 0.16 0.16 0.11 0.09 0.07 0.08 0.07 0.06 0.05
0.00 0.00 0.00 0.00 0.00 0.00 0.00 0.00 0.00 0.00 0.00 0.00 0.00 0.00 0.01 0.02 0.02 0.00 0.00 0.00 0.00 0.02 0.06 0.04 0.06 0.05 0.02 0.05 0.07 0.09 0.15 0.16 0.16 0.20 0.16 0.12 0.11 0.10 0.09 0.09 0.08 0.09 0.08 0.06
0.00 0.00 0.00 0.00 0.00 0.00 0.00 0.00 0.00 0.00 0.00 0.00 0.00 0.00 0.00 0.00 0.01 0.01 0.00 0.00 0.00 0.01 0.02 0.02 0.07 0.10 0.03 0.04 0.12 0.19 0.17 0.18 0.20 0.16 0.12 0.10 0.10 0.12 0.10 0.09 0.11 0.10 0.09 0.07
0.00 0.00 0.00 0.00 0.00 0.00 0.00 0.00 0.00 0.00 0.00 0.00 0.00 0.00 0.00 0.00 0.00 0.00 0.00 0.00 0.00 0.00 0.00 0.00 0.01 0.01 0.01 0.03 0.08 0.11 0.09 0.09 0.11 0.12 0.12 0.10 0.11 0.14 0.12 0.10 0.09 0.08 0.08 0.08
0.00 0.00 0.00 0.00 0.00 0.00 0.00 0.00 0.00 0.00 0.00 0.00 0.00 0.00 0.00 0.00 0.00 0.00 0.00 0.00 0.00 0.00 0.00 0.00 0.01 0.01 0.01 0.02 0.03 0.05 0.07 0.09 0.10 0.12 0.11 0.09 0.09 0.12 0.11 0.10 0.11 0.10 0.08 0.07
0.00 0.00 0.00 0.00 0.00 0.00 0.00 0.00 0.00 0.00 0.00 0.01 0.00 0.00 0.00 0.00 0.00 0.00 0.00 0.00 0.00 0.00 0.00 0.02 0.01 0.01 0.01 0.02 0.03 0.05 0.08 0.10 0.09 0.09 0.10 0.10 0.07 0.07 0.09 0.11 0.10 0.09 0.08 0.07
0.00 0.00 0.00 0.00 0.00 0.00 0.00 0.00 0.00 0.00 0.00 0.01 0.01 0.00 0.00 0.01 0.00 0.00 0.00 0.00 0.00 0.00 0.02 0.03 0.06 0.05 0.01 0.01 0.02 0.03 0.05 0.06 0.09 0.11 0.12 0.10 0.08 0.08 0.11 0.13 0.12 0.11 0.11 0.10
0.00 0.00 0.00 0.00 0.00 0.00 0.00 0.00 0.00 0.00 0.00 0.00 0.00 0.00 0.01 0.01 0.01 0.00 0.00 0.00 0.00 0.03 0.03 0.01 0.03 0.08 0.03 0.01 0.01 0.02 0.03 0.04 0.08 0.11 0.10 0.06 0.08 0.08 0.11 0.12 0.11 0.10 0.10 0.10
0.00 0.00 0.00 0.00 0.00 0.00 0.00 0.00 0.00 0.00 0.00 0.00 0.01 0.01 0.01 0.02 0.01 0.01 0.00 0.00 0.00 0.01 0.01 0.00 0.00 0.01 0.01 0.00 0.01 0.02 0.03 0.05 0.07 0.08 0.08 0.08 0.07 0.07 0.08 0.10 0.12 0.13 0.13 0.11
0.00 0.00 0.00 0.00 0.00 0.00 0.00 0.00 0.00 0.00 0.00 0.00 0.00 0.00 0.01 0.01 0.01 0.00 0.00 0.00 0.00 0.00 0.00 0.00 0.00 0.00 0.00 0.00 0.01 0.01 0.02 0.03 0.05 0.07 0.08 0.09 0.09 0.09 0.09 0.09 0.12 0.15 0.15 0.14
0.00 0.00 0.00 0.00 0.00 0.00 0.00 0.00 0.00 0.00 0.00 0.00 0.00 0.00 0.00 0.00 0.00 0.00 0.00 0.00 0.00 0.00 0.00 0.00 0.00 0.00 0.00 0.00 0.01 0.01 0.01 0.02 0.04 0.06 0.06 0.06 0.07 0.09 0.10 0.12 0.14 0.18 0.19 0.20
0.00 0.00 0.00 0.00 0.00 0.00 0.00 0.00 0.00 0.00 0.00 0.00 0.00 0.00 0.00 0.00 0.00 0.01 0.01 0.00 0.00 0.00 0.00 0.00 0.00 0.01 0.01 0.01 0.01 0.01 0.01 0.02 0.03 0.04 0.04 0.05 0.07 0.09 0.10 0.11 0.14 0.16 0.19 0.21
0.00 0.00 0.00 0.00 0.00 0.00 0.00 0.00 0.00 0.00 0.00 0.00 0.00 0.00 0.01 0.02 0.01 0.02 0.01 0.00 0.00 0.01 0.01 0.01 0.01 0.02 0.03 0.02 0.01 0.02 0.02 0.01 0.02 0.03 0.04 0.06 0.07 0.08 0.08 0.09 0.10 0.12 0.13 0.15
0.00 0.00 0.00 0.00 0.00 0.00 0.00 0.00 0.00 0.00 0.00 0.00 0.00 0.00 0.00 0.01 0.01 0.01 0.01 0.00 0.00 0.01 0.01 0.01 0.01 0.02 0.03 0.03 0.02 0.02 0.02 0.01 0.02 0.04 0.06 0.09 0.09 0.08 0.07 0.07 0.09 0.09 0.11 0.12
0.00 0.00 0.00 0.00 0.00 0.00 0.00 0.00 0.00 0.00 0.00 0.00 0.00 0.00 0.01 0.01 0.03 0.06 0.02 0.00 0.00 0.00 0.01 0.01 0.02 0.02 0.02 0.02 0.01 0.01 0.02 0.03 0.03 0.04 0.06 0.07 0.08 0.08 0.08 0.08 0.08 0.08 0.08 0.09
0.00 0.00 0.00 0.00 0.00 0.00 0.00 0.00 0.00 0.00 0.00 0.00 0.00 0.00 0.00 0.01 0.04 0.04 0.02 0.00 0.01 0.00 0.00 0.01 0.01 0.01 0.01 0.01 0.01 0.01 0.02 0.03 0.04 0.05 0.06 0.06 0.07 0.07 0.07 0.08 0.08 0.08 0.08 0.08
0.00 0.00 0.00 0.00 0.00 0.00 0.00 0.00 0.00 0.00 0.00 0.00 0.00 0.00 0.00 0.01 0.01 0.01 0.00 0.01 0.01 0.00 0.01 0.01 0.02 0.01 0.01 0.02 0.02 0.02 0.02 0.04 0.04 0.05 0.05 0.06 0.06 0.07 0.07 0.08 0.08 0.09 0.09 0.08
0.00 0.00 0.00 0.00 0.00 0.00 0.00 0.00 0.00 0.00 0.00 0.00 0.00 0.00 0.00 0.01 0.02 0.02 0.01 0.01 0.01 0.00 0.01 0.01 0.01 0.01 0.01 0.01 0.02 0.02 0.02 0.03 0.04 0.06 0.07 0.08 0.07 0.06 0.07 0.09 0.13 0.16 0.16 0.15
0.00 0.00 0.00 0.00 0.00 0.00 0.00 0.00 0.00 0.01 0.01 0.00 0.00 0.00 0.01 0.03 0.03 0.04 0.02 0.02 0.02 0.01 0.00 0.00 0.01 0.01 0.01 0.01 0.02 0.03 0.03 0.03 0.04 0.06 0.07 0.08 0.08 0.07 0.07 0.09 0.10 0.14 0.16 0.17
0.00 0.00 0.00 0.00 0.00 0.01 0.00 0.00 0.01 0.01 0.00 0.00 0.00 0.00 0.01 0.03 0.03 0.03 0.02 0.02 0.01 0.00 0.00 0.00 0.00 0.01 0.01 0.01 0.02 0.02 0.02 0.05 0.07 0.08 0.08 0.10 0.09 0.06 0.06 0.06 0.08 0.12 0.13 0.14
0.00 0.00 0.00 0.01 0.01 0.02 0.00 0.00 0.00 0.00 0.00 0.00 0.00 0.01 0.01 0.02 0.03 0.04 0.04 0.04 0.01 0.00 0.00 0.01 0.01 0.01 0.01 0.02 0.02 0.03 0.03 0.04 0.05 0.06 0.08 0.09 0.10 0.08 0.06 0.04 0.06 0.08 0.11 0.13
0.01 0.01 0.01 0.01 0.01 0.01 0.00 0.00 0.00 0.00 0.00 0.00 0.00 0.01 0.00 0.01 0.02 0.07 0.06 0.02 0.01 0.01 0.01 0.01 0.01 0.01 0.01 0.02 0.02 0.02 0.04 0.05 0.05 0.06 0.05 0.05 0.05 0.05 0.05 0.05 0.06 0.07 0.09 0.10
0.01 0.01 0.01 0.02 0.03 0.03 0.03 0.01 0.01 0.00 0.00 0.00 0.00 0.00 0.00 0.00 0.01 0.02 0.03 0.01 0.02 0.02 0.01 0.02 0.02 0.02 0.01 0.02 0.03 0.03 0.03 0.03 0.05 0.05 0.05 0.05 0.04 0.04 0.04 0.05 0.07 0.08 0.09 0.10
0.02 0.02 0.03 0.05 0.04 0.04 0.05 0.03 0.01 0.01 0.01 0.00 0.00 0.00 0.00 0.00 0.01 0.02 0.02 0.02 0.02 0.01 0.01 0.01 0.01 0.02 0.02 0.03 0.04 0.04 0.04 0.04 0.04 0.04 0.04 0.05 0.05 0.05 0.05 0.06 0.09 0.12 0.11 0.12
MSLP
1007.96 1008.32 1008.49 1008.51 1008.43 1008.31 1008.19 1008.09 1007.99 1007.86 1007.66 1007.36 1006.94 1006.43 1005.88 1005.37 1004.97 1004.75 1004.76 1004.99 1005.43 1006.02 1006.69 1007.38 1008.04 1008.65 1009.21 1009.73 1010.23 1010.74 1011.26 1011.78 1012.27 1012.71 1013.07 1013.34 1013.52 1013.63 1013.71 1013.81 1013.97 1014.22 1014.56 1014.98
1008.25 1008.42 1008.41 1008.30 1008.16 1008.06 1008.02 1008.06 1008.13 1008.16 1008.09 1007.86 1007.45 1006.90 1006.27 1005.65 1005.14 1004.84 1004.79 1005.02 1005.47 1006.10 1006.82 1007.55 1008.23 1008.84 1009.37 1009.85 1010.33 1010.82 1011.35 1011.91 1012.46 1012.96 1013.37 1013.67 1013.84 1013.92 1013.92 1013.93 1013.99 1014.15 1014.43 1014.82
1008.40 1008.38 1008.21 1007.99 1007.82 1007.76 1007.83 1008.03 1008.28 1008.48 1008.54 1008.39 1008.00 1007.41 1006.69 1005.96 1005.34 1004.94 1004.84 1005.03 1005.49 1006.15 1006.90 1007.65 1008.34 1008.94 1009.44 1009.89 1010.32 1010.79 1011.32 1011.90 1012.49 1013.05 1013.52 1013.86 1014.06 1014.13 1014.10 1014.06 1014.06 1014.15 1014.38 1014.73
1008.38 1008.20 1007.91 1007.63 1007.46 1007.48 1007.70 1008.07 1008.51 1008.88 1009.06 1008.98 1008.60 1007.95 1007.13 1006.28 1005.53 1005.03 1004.84 1004.99 1005.44 1006.10 1006.87 1007.64 1008.33 1008.92 1009.39 1009.80 1010.20 1010.64 1011.15 1011.73 1012.35 1012.96 1013.48 1013.88 1014.12 1014.22 1014.20 1014.15 1014.12 1014.19 1014.38 1014.71
1008.16 1007.88 1007.53 1007.24 1007.14 1007.27 1007.65 1008.21 1008.82 1009.34 1009.63 1009.59 1009.20 1008.48 1007.56 1006.57 1005.70 1005.07 1004.78 1004.86 1005.27 1005.92 1006.70 1007.48 1008.19 1008.77 1009.23 1009.61 1009.97 1010.37 1010.86 1011.43 1012.06 1012.69 1013.26 1013.71 1014.02 1014.16 1014.19 1014.17 1014.16 1014.22 1014.41 1014.72
1007.77 1007.44 1007.10 1006.87 1006.86 1007.14 1007.68 1008.41 1009.17 1009.81 1010.18 1010.17 1009.75 1008.96 1007.93 1006.81 1005.80 1005.04 1004.65 1004.65 1005.01 1005.64 1006.41 1007.21 1007.92 1008.52 1008.98 1009.35 1009.68 1010.05 1010.51 1011.05 1011.67 1012.31 1012.91 1013.40 1013.76 1013.98 1014.07 1014.10 1014.14 1014.23 1014.42 1014.72
1007.24 1006.92 1006.63 1006.50 1006.62 1007.04 1007.74 1008.61 1009.49 1010.22 1010.63 1010.63 1010.17 1009.32 1008.19 1006.96 1005.83 1004.97 1004.47 1004.39 1004.69 1005.28 1006.05 1006.85 1007.59 1008.21 1008.69 1009.06 1009.39 1009.74 1010.16 1010.66 1011.25 1011.87 1012.47 1013.00 1013.41 1013.68 1013.85 1013.95 1014.04 1014.17 1014.38 1014.68
1006.60 1006.35 1006.15 1006.14 1006.40 1006.95 1007.76 1008.72 1009.68 1010.45 1010.88 1010.86 1010.38 1009.49 1008.30 1007.01 1005.80 1004.86 1004.28 1004.13 1004.38 1004.94 1005.69 1006.50 1007.26 1007.90 1008.41 1008.80 1009.14 1009.47 1009.85 1010.32 1010.86 1011.45 1012.03 1012.55 1012.99 1013.31 1013.54 1013.71 1013.86 1014.03 1014.26 1014.56
1005.94 1005.78 1005.70 1005.81 1006.17 1006.82 1007.69 1008.69 1009.66 1010.43 1010.84 1010.82 1010.33 1009.44 1008.25 1006.96 1005.74 1004.77 1004.16 1003.96 1004.16 1004.68 1005.41 1006.21 1006.98 1007.65 1008.19 1008.61 1008.95 1009.28 1009.63 1010.05 1010.54 1011.07 1011.60 1012.11 1012.55 1012.90 1013.18 1013.39 1013.59 1013.80 1014.05 1014.35
1005.33 1005.27 1005.31 1005.51 1005.96 1006.64 1007.51 1008.48 1009.40 1010.12 1010.51 1010.48 1010.02 1009.17 1008.05 1006.82 1005.67 1004.74 1004.14 1003.93 1004.10 1004.58 1005.26 1006.04 1006.80 1007.48 1008.04 1008.48 1008.84 1009.16 1009.49 1009.86 1010.29 1010.75 1011.23 1011.70 1012.12 1012.47 1012.77 1013.02 1013.26 1013.50 1013.76 1014.06
1004.85 1004.90 1005.03 1005.31 1005.77 1006.43 1007.24 1008.11 1008.92 1009.55 1009.89 1009.86 1009.45 1008.71 1007.72 1006.65 1005.62 1004.80 1004.27 1004.08 1004.23 1004.66 1005.29 1006.01 1006.74 1007.39 1007.95 1008.39 1008.76 1009.07 1009.38 1009.72 1010.09 1010.49 1010.91 1011.32 1011.70 1012.04 1012.34 1012.62 1012.87 1013.13 1013.41 1013.71
1004.56 1004.70 1004.91 1005.22 1005.66 1006.23 1006.91 1007.63 1008.29 1008.80 1009.07 1009.05 1008.71 1008.11 1007.31 1006.44 1005.61 1004.94 1004.52 1004.37 1004.52 1004.90 1005.45 1006.10 1006.75 1007.35 1007.88 1008.31 1008.67 1008.99 1009.28 1009.58 1009.91 1010.25 1010.61 1010.97 1011.31 1011.63 1011.93 1012.21 1012.48 1012.76 1013.06 1013.37
1004.48 1004.71 1004.97 1005.28 1005.66 1006.11 1006.62 1007.14 1007.61 1007.97 1008.16 1008.13 1007.88 1007.43 1006.85 1006.21 1005.61 1005.14 1004.84 1004.77 1004.91 1005.23 1005.70 1006.24 1006.80 1007.33 1007.80 1008.20 1008.55 1008.85 1009.14 1009.42 1009.72 1010.02 1010.34 1010.65 1010.96 1011.26 1011.56 1011.84 1012.13 1012.43 1012.74 1013.07
1004.60 1004.91 1005.21 1005.50 1005.79 1006.09 1006.41 1006.71 1006.97 1007.15 1007.23 1007.19 1007.01 1006.72 1006.35 1005.95 1005.59 1005.31 1005.16 1005.16 1005.31 1005.58 1005.96 1006.39 1006.83 1007.27 1007.67 1008.04 1008.37 1008.67 1008.95 1009.24 1009.52 1009.80 1010.10 1010.39 1010.68 1010.97 1011.27 1011.57 1011.87 1012.20 1012.53 1012.89
1004.89 1005.26 1005.58 1005.84 1006.04 1006.19 1006.30 1006.38 1006.42 1006.42 1006.38 1006.29 1006.16 1006.00 1005.81 1005.64 1005.50 1005.42 1005.41 1005.49 1005.65 1005.88 1006.17 1006.49 1006.83 1007.18 1007.51 1007.84 1008.15 1008.45 1008.75 1009.05 1009.34 1009.63 1009.92 1010.21 1010.50 1010.80 1011.10 1011.42 1011.75 1012.11 1012.48 1012.87
1005.27 1005.69 1006.02 1006.25 1006.36 1006.37 1006.30 1006.17 1006.00 1005.82 1005.64 1005.49 1005.37 1005.29 1005.26 1005.26 1005.31 1005.40 1005.52 1005.68 1005.87 1006.07 1006.30 1006.54 1006.80 1007.06 1007.34 1007.64 1007.94 1008.26 1008.58 1008.91 1009.23 1009.54 1009.85 1010.15 1010.46 1010.77 1011.09 1011.44 1011.81 1012.20 1012.61 1013.04
1005.67 1006.12 1006.45 1006.65 1006.69 1006.59 1006.36 1006.05 1005.69 1005.34 1005.04 1004.81 1004.67 1004.63 1004.69 1004.83 1005.02 1005.25 1005.50 1005.73 1005.96 1006.17 1006.36 1006.56 1006.76 1006.97 1007.22 1007.50 1007.81 1008.15 1008.50 1008.86 1009.22 1009.57 1009.91 1010.24 1010.57 1010.91 1011.27 1011.65 1012.05 1012.48 1012.93 1013.40
1006.00 1006.45 1006.78 1006.96 1006.95 1006.77 1006.43 1005.98 1005.48 1004.99 1004.57 1004.25 1004.08 1004.05 1004.16 1004.38 1004.69 1005.03 1005.37 1005.69 1005.97 1006.21 1006.41 1006.59 1006.77 1006.97 1007.20 1007.48 1007.80 1008.16 1008.55 1008.95 1009.35 1009.74 1010.12 1010.48 1010.85 1011.22 1011.62 1012.03 1012.48 1012.94 1013.43 1013.94
1006.22 1006.65 1006.96 1007.12 1007.09 1006.85 1006.45 1005.92 1005.33 1004.75 1004.23 1003.85 1003.63 1003.59 1003.73 1004.01 1004.38 1004.81 1005.24 1005.64 1005.99 1006.28 1006.51 1006.70 1006.89 1007.09 1007.33 1007.61 1007.95 1008.33 1008.74 1009.17 1009.60 1010.03 1010.44 1010.84 1011.25 1011.66 1012.09 1012.55 1013.03 1013.54 1014.08 1014.62
1006.31 1006.68 1006.97 1007.11 1007.06 1006.83 1006.41 1005.86 1005.23 1004.60 1004.04 1003.62 1003.37 1003.32 1003.47 1003.77 1004.20 1004.70 1005.20 1005.68 1006.10 1006.45 1006.72 1006.95 1007.16 1007.37 1007.61 1007.90 1008.23 1008.62 1009.04 1009.48 1009.93 1010.38 1010.82 1011.26 1011.70 1012.16 1012.63 1013.13 1013.66 1014.22 1014.80 1015.39
1006.27 1006.58 1006.82 1006.94 1006.90 1006.68 1006.30 1005.78 1005.17 1004.56 1004.01 1003.59 1003.34 1003.29 1003.44 1003.78 1004.24 1004.78 1005.35 1005.89 1006.37 1006.77 1007.10 1007.36 1007.58 1007.80 1008.03 1008.30 1008.62 1008.99 1009.39 1009.83 1010.28 1010.74 1011.21 1011.68 1012.16 1012.65 1013.17 1013.72 1014.31 1014.92 1015.55 1016.18
1006.14 1006.36 1006.54 1006.65 1006.63 1006.47 1006.15 1005.71 1005.18 1004.64 1004.15 1003.77 1003.56 1003.53 1003.70 1004.06 1004.55 1005.12 1005.72 1006.31 1006.83 1007.28 1007.63 1007.91 1008.14 1008.34 1008.55 1008.78 1009.06 1009.38 1009.75 1010.16 1010.60 1011.06 1011.54 1012.04 1012.55 1013.10 1013.67 1014.28 1014.92 1015.59 1016.28 1016.97
1005.95 1006.07 1006.21 1006.30 1006.32 1006.22 1006.01 1005.68 1005.28 1004.85 1004.47 1004.17 1004.03 1004.05 1004.25 1004.62 1005.13 1005.72 1006.34 1006.94 1007.48 1007.94 1008.31 1008.58 1008.79 1008.96 1009.12 1009.29 1009.50 1009.76 1010.07 1010.44 1010.85 1011.31 1011.80 1012.33 1012.89 1013.49 1014.12 1014.80 1015.50 1016.23 1016.98 1017.72
1005.73 1005.77 1005.86 1005.95 1006.01 1006.00 1005.90 1005.72 1005.47 1005.20 1004.95 1004.77 1004.72 1004.80 1005.04 1005.43 1005.94 1006.53 1007.14 1007.74 1008.28 1008.72 1009.07 1009.32 1009.49 1009.60 1009.70 1009.80 1009.94 1010.12 1010.38 1010.70 1011.08 1011.53 1012.04 1012.59 1013.20 1013.85 1014.55 1015.28 1016.05 1016.84 1017.64 1018.44
1005.50 1005.48 1005.53 1005.63 1005.74 1005.82 1005.86 1005.83 1005.76 1005.66 1005.57 1005.52 1005.57 1005.72 1006.00 1006.41 1006.91 1007.48 1008.07 1008.64 1009.14 1009.56 1009.87 1010.08 1010.20 1010.26 1010.29 1010.32 1010.39 1010.51 1010.70 1010.98 1011.34 1011.78 1012.30 1012.89 1013.54 1014.25 1015.00 1015.79 1016.61 1017.45 1018.29 1019.13
1005.26 1005.20 1005.24 1005.36 1005.53 1005.71 1005.88 1006.02 1006.11 1006.19 1006.26 1006.35 1006.50 1006.73 1007.05 1007.46 1007.95 1008.48 1009.03 1009.56 1010.02 1010.39 1010.66 1010.83 1010.91 1010.93 1010.91 1010.89 1010.90 1010.97 1011.12 1011.37 1011.71 1012.15 1012.68 1013.30 1013.99 1014.73 1015.53 1016.37 1017.22 1018.09 1018.95 1019.79
Thickness
5828 5817 5813 5826 5838 5837 5837 5833 5832 5844 5861 5848 5838 5838 5845 5854 5849 5838 5830 5825 5819 5816 5815 5810 5803 5797 5791 5784 5778 5773 5767 5764 5760 5755 5752 5750 5750 5753 5756 5757 5757 5756 5756 5755
5816 5812 5830 5843 5845 5839 5832 5824 5828 5843 5857 5844 5833 5834 5846 5850 5846 5842 5834 5827 5822 5816 5811 5805 5801 5796 5789 5783 5778 5773 5767 5763 5759 5756 5753 5751 5750 5752 5754 5756 5756 5755 5755 5754
5809 5830 5845 5836 5830 5826 5825 5822 5826 5830 5842 5845 5831 5824 5836 5844 5846 5845 5840 5834 5828 5819 5809 5802 5798 5794 5789 5783 5778 5774 5768 5763 5759 5756 5752 5750 5748 5749 5750 5752 5753 5754 5754 5754
5819 5835 5836 5828 5824 5825 5815 5835 5834 5829 5820 5817 5826 5803 5823 5834 5828 5833 5834 5831 5826 5820 5809 5803 5797 5793 5789 5785 5781 5775 5769 5764 5759 5756 5752 5748 5746 5744 5748 5750 5752 5752 5752 5753
5818 5830 5826 5820 5826 5831 5826 5840 5834 5827 5817 5810 5819 5808 5818 5832 5818 5824 5831 5831 5827 5821 5813 5805 5800 5794 5791 5788 5782 5777 5770 5764 5760 5757 5754 5750 5749 5748 5749 5751 5750 5750 5751 5751
5826 5842 5838 5832 5839 5838 5835 5829 5824 5821 5812 5791 5809 5806 5805 5824 5822 5826 5832 5832 5828 5822 5816 5808 5803 5798 5792 5789 5784 5778 5770 5764 5761 5757 5755 5752 5750 5749 5748 5748 5747 5748 5749 5750
5807 5823 5838 5841 5825 5830 5825 5803 5784 5782 5783 5786 5815 5808 5812 5834 5842 5838 5833 5830 5828 5823 5816 5808 5801 5796 5791 5787 5783 5777 5770 5764 5761 5758 5755 5753 5752 5750 5748 5748 5747 5747 5748 5748
5791 5797 5825 5833 5823 5815 5816 5807 5780 5770 5771 5779 5798 5799 5819 5842 5847 5846 5840 5834 5827 5821 5815 5807 5802 5796 5791 5787 5782 5777 5770 5765 5762 5759 5756 5755 5754 5752 5751 5750 5749 5749 5749 5750
5805 5808 5838 5839 5838 5825 5810 5809 5819 5801 5793 5785 5795 5812 5824 5835 5835 5836 5833 5828 5822 5818 5813 5806 5802 5796 5791 5787 5782 5778 5771 5766 5763 5760 5758 5756 5755 5754 5753 5752 5751 5750 5750 5750
5812 5803 5828 5836 5833 5829 5823 5821 5811 5794 5776 5770 5786 5795 5799 5807 5815 5821 5824 5821 5818 5816 5812 5807 5801 5795 5791 5789 5783 5779 5773 5767 5764 5762 5759 5757 5755 5754 5753 5752 5750 5750 5750 5749
5814 5797 5810 5823 5809 5807 5810 5806 5804 5802 5799 5778 5768 5780 5816 5812 5815 5815 5819 5823 5820 5815 5812 5807 5802 5797 5793 5789 5783 5778 5772 5768 5764 5762 5759 5756 5754 5754 5752 5751 5750 5749 5748 5747
5814 5801 5792 5810 5830 5831 5821 5811 5804 5782 5782 5791 5783 5789 5828 5825 5827 5823 5823 5824 5822 5817 5813 5807 5801 5795 5790 5786 5782 5777 5772 5768 5764 5762 5758 5755 5753 5752 5750 5748 5747 5747 5745 5743
5808 5792 5773 5781 5803 5817 5814 5816 5813 5806 5794 5787 5782 5788 5827 5826 5826 5827 5824 5821 5817 5813 5809 5804 5797 5792 5788 5784 5780 5776 5772 5768 5765 5762 5758 5754 5751 5749 5746 5745 5744 5743 5741 5739
5804 5786 5777 5773 5792 5807 5803 5809 5813 5805 5790 5786 5792 5795 5808 5811 5813 5816 5816 5815 5812 5807 5802 5798 5791 5787 5784 5781 5777 5773 5769 5767 5763 5760 5755 5751 5749 5746 5744 5742 5741 5739 5736 5734
5792 5775 5780 5790 5804 5807 5805 5805 5808 5803 5801 5794 5798 5801 5805 5809 5810 5809 5810 5809 5806 5800 5796 5791 5785 5782 5779 5776 5773 5770 5766 5764 5761 5756 5751 5748 5745 5743 5740 5738 5736 5734 5732 5730
5779 5768 5772 5775 5793 5800 5799 5805 5807 5807 5808 5805 5804 5802 5816 5816 5813 5807 5806 5804 5799 5795 5792 5789 5784 5779 5774 5770 5768 5765 5762 5759 5756 5751 5747 5744 5741 5738 5735 5733 5731 5728 5726 5724
5767 5757 5751 5755 5780 5785 5779 5800 5805 5806 5812 5809 5799 5804 5811 5802 5800 5799 5799 5799 5796 5793 5789 5784 5779 5775 5771 5767 5764 5760 5757 5755 5751 5747 5743 5739 5736 5732 5729 5727 5724 5721 5719 5717
5755 5752 5748 5749 5755 5742 5783 5818 5817 5809 5810 5815 5810 5809 5806 5800 5797 5796 5799 5797 5792 5789 5784 5780 5776 5772 5768 5765 5761 5757 5754 5749 5745 5741 5738 5734 5730 5726 5723 5720 5717 5714 5712 5708
5758 5746 5740 5741 5740 5751 5781 5803 5807 5797 5794 5809 5805 5801 5799 5797 5790 5787 5793 5793 5787 5784 5780 5776 5773 5769 5764 5760 5756 5752 5747 5743 5739 5735 5731 5728 5724 5720 5716 5712 5710 5707 5704 5700
5749 5744 5732 5731 5727 5734 5769 5797 5809 5796 5776 5798 5800 5792 5789 5786 5770 5768 5780 5781 5778 5775 5772 5769 5766 5762 5756 5753 5751 5745 5740 5735 5731 5728 5725 5722 5717 5713 5709 5705 5703 5700 5696 5692
5724 5723 5720 5720 5722 5743 5775 5789 5788 5756 5756 5782 5788 5785 5781 5772 5769 5769 5771 5768 5766 5763 5762 5760 5756 5751 5747 5746 5742 5736 5731 5727 5725 5722 5718 5714 5709 5706 5702 5698 5695 5691 5686 5682
5718 5715 5713 5717 5714 5727 5765 5771 5757 5751 5766 5772 5771 5770 5766 5762 5761 5760 5758 5755 5753 5752 5750 5748 5744 5740 5738 5737 5733 5727 5723 5721 5718 5715 5710 5706 5702 5699 5694 5690 5686 5682 5677 5671
5721 5722 5724 5722 5723 5737 5749 5750 5754 5760 5757 5760 5760 5759 5757 5752 5749 5747 5744 5742 5741 5741 5738 5737 5733 5729 5727 5725 5723 5717 5714 5713 5710 5705 5701 5696 5692 5688 5684 5680 5676 5672 5668 5663
5715 5723 5719 5715 5719 5728 5736 5741 5744 5748 5748 5751 5751 5750 5748 5741 5739 5737 5733 5731 5730 5729 5727 5726 5722 5717 5714 5713 5711 5708 5706 5704 5701 5696 5691 5686 5681 5676 5672 5669 5666 5662 5658 5654
5697 5701 5704 5704 5710 5715 5719 5724 5727 5732 5737 5738 5739 5739 5736 5731 5728 5725 5721 5719 5718 5716 5714 5712 5708 5704 5701 5701 5699 5698 5696 5694 5690 5685 5681 5676 5670 5666 5659 5654 5650 5649 5645 5644
5691 5690 5686 5687 5698 5701 5703 5711 5717 5718 5720 5722 5722 5722 5723 5721 5715 5713 5709 5707 5705 5703 5700 5697 5694 5692 5689 5688 5686 5685 5685 5683 5679 5674 5670 5665 5660 5654 5648 5642 5634 5629 5629 5628